Location: Unspecified
(29.9680°N, 0.0000°E)
Time: 18:56:01
(UTC+00:00)

Altair - All Passes

Search period start: 17 June 2019 00:00
Search period end: 27 June 2019 00:00
Orbit: 1501 x 1683 km, 47.2° (Epoch: 16 June)

Date Brightness Start Highest point End Pass type
(mag) Time Alt. Az. Time Alt. Az. Time Alt. Az.
17 Jun - 01:10:08 10° NW 01:18:48 32° NNE 01:27:36 10° ENE visible
17 Jun - 03:15:15 10° NW 03:25:21 67° NE 03:35:27 10° ESE visible
17 Jun - 05:20:45 10° WNW 05:29:52 39° SW 05:38:54 10° SSE daylight
17 Jun - 18:27:01 10° S 18:35:06 34° SE 18:43:27 10° ENE daylight
17 Jun - 20:29:51 10° WSW 20:39:18 71° NW 20:49:12 10° NE visible
17 Jun - 22:37:11 10° WNW 22:45:40 32° NNW 22:54:23 10° NE visible
18 Jun - 00:44:51 10° NW 00:53:24 31° NNE 01:02:06 10° ENE visible
18 Jun - 02:50:04 10° NW 03:00:05 63° NE 03:10:08 10° ESE visible
18 Jun - 04:55:23 10° WNW 05:04:44 43° SW 05:14:01 10° SSE daylight
18 Jun - 18:02:16 10° S 18:10:01 30° SE 18:18:00 10° ENE daylight
18 Jun - 20:04:39 10° SW 20:14:06 76° NW 20:23:59 10° NE visible
18 Jun - 22:11:45 10° WNW 22:20:17 33° NNW 22:29:05 10° NE visible
19 Jun - 00:19:33 10° NW 00:27:59 30° N 00:36:35 10° ENE visible
19 Jun - 02:24:52 10° NW 02:34:49 59° NNE 02:44:48 10° ESE visible
19 Jun - 04:30:04 10° WNW 04:39:36 48° SW 04:49:05 10° SSE visible
19 Jun - 17:37:35 10° S 17:44:57 27° SE 17:52:30 10° ENE daylight
19 Jun - 19:39:28 10° SW 19:48:53 82° NW 19:58:45 10° NE visible
19 Jun - 21:46:20 10° W 21:54:54 35° NNW 22:03:48 10° NE visible
19 Jun - 23:54:14 10° NW 00:02:35 29° N 00:11:05 10° ENE visible
20 Jun - 01:59:41 10° NW 02:09:32 55° NNE 02:19:26 10° ESE visible
20 Jun - 04:04:45 10° WNW 04:14:27 52° SW 04:24:07 10° SSE visible
20 Jun - 17:12:58 10° S 17:19:53 24° SE 17:26:57 10° ENE daylight
20 Jun - 19:14:19 10° SW 19:23:42 88° NW 19:33:33 10° NE visible
20 Jun - 21:20:55 10° W 21:29:34 36° NNW 21:38:30 10° NE visible
20 Jun - 23:28:54 10° NW 23:37:10 29° N 23:45:35 10° ENE visible
21 Jun - 01:34:30 10° NW 01:44:14 51° NNE 01:54:03 10° ESE visible
21 Jun - 03:39:27 10° WNW 03:49:17 58° SW 03:59:06 10° SSE visible
21 Jun - 05:50:29 10° WSW 05:52:48 11° WSW 05:55:08 10° SW daylight
21 Jun - 16:48:26 10° S 16:54:50 21° SE 17:01:20 10° E daylight
21 Jun - 18:49:11 10° SW 18:58:32 86° SE 19:08:19 10° NE daylight
21 Jun - 20:55:31 10° W 21:04:13 38° NNW 21:13:15 10° NE visible
21 Jun - 23:03:34 10° NW 23:11:45 28° N 23:20:07 10° ENE visible
22 Jun - 01:09:19 10° NW 01:18:55 48° NNE 01:28:38 10° ESE visible
22 Jun - 03:14:11 10° NW 03:24:07 63° SW 03:34:03 10° SSE visible
22 Jun - 05:23:37 10° W 05:27:43 13° WSW 05:31:50 10° SSW daylight
22 Jun - 16:24:00 10° SSE 16:29:47 18° ESE 16:35:37 10° E daylight
22 Jun - 18:24:05 10° SW 18:33:23 80° SE 18:43:05 10° NE daylight
22 Jun - 20:30:08 10° W 20:38:53 40° NNW 20:47:59 10° NE visible
22 Jun - 22:38:14 10° NW 22:46:20 28° N 22:54:38 10° ENE visible
23 Jun - 00:44:07 10° NW 00:53:36 45° NNE 01:03:13 10° E visible
23 Jun - 02:48:56 10° NW 02:58:56 69° SW 03:08:59 10° SE visible
23 Jun - 04:57:24 10° W 05:02:38 15° WSW 05:07:52 10° SSW daylight
23 Jun - 15:59:45 10° SSE 16:04:43 16° ESE 16:09:45 10° E daylight
23 Jun - 17:59:00 10° SW 18:08:14 73° SE 18:17:51 10° NE daylight
23 Jun - 20:04:45 10° W 20:13:34 42° NNW 20:22:46 10° NE visible
23 Jun - 22:12:52 10° NW 22:20:54 28° N 22:29:10 10° ENE visible
24 Jun - 00:18:56 10° NW 00:28:16 43° NNE 00:37:46 10° E visible
24 Jun - 02:23:43 10° NW 02:33:45 74° SW 02:43:52 10° SE visible
24 Jun - 04:31:27 10° W 04:37:32 18° WSW 04:43:38 10° SSW visible
24 Jun - 15:35:44 10° SSE 15:39:41 13° ESE 15:43:39 10° E daylight
24 Jun - 17:33:57 10° SW 17:43:06 67° SE 17:52:36 10° NE daylight
24 Jun - 19:39:23 10° W 19:48:16 44° NNW 19:57:32 10° NE visible
24 Jun - 21:47:29 10° WNW 21:55:30 28° N 22:03:44 10° NE visible
24 Jun - 23:53:44 10° NW 00:02:56 41° NNE 00:12:19 10° E visible
25 Jun - 01:58:30 10° NW 02:08:33 80° SW 02:18:43 10° SE visible
25 Jun - 04:05:41 10° W 04:12:26 20° SW 04:19:13 10° SSW visible
25 Jun - 15:12:16 10° SE 15:14:38 11° ESE 15:17:00 10° ESE daylight
25 Jun - 17:08:56 10° SSW 17:17:59 61° SE 17:27:20 10° ENE daylight
25 Jun - 19:14:02 10° W 19:22:59 47° NNW 19:32:18 10° NE visible
25 Jun - 21:22:06 10° WNW 21:30:05 28° N 21:38:18 10° NE visible
25 Jun - 23:28:32 10° NW 23:37:35 39° NNE 23:46:50 10° E visible
26 Jun - 01:33:17 10° NW 01:43:21 86° SW 01:53:33 10° SE visible
26 Jun - 03:40:02 10° WNW 03:47:20 23° SW 03:54:41 10° S visible
26 Jun - 16:43:58 10° SSW 16:52:52 55° SE 17:02:04 10° ENE daylight
26 Jun - 18:48:42 10° WSW 18:57:43 50° NNW 19:07:05 10° NE daylight
26 Jun - 20:56:42 10° WNW 21:04:41 28° N 21:12:53 10° NE visible
26 Jun - 23:03:20 10° NW 23:12:14 37° NNE 23:21:21 10° E visible
